Location: Newark
(40.9833°N, 0.0333°W)
Time: 14:20:33
(UTC+00:00)

Vanguard 2 - Visible Passes

Search period start: 31 October 2020 00:00
Search period end: 10 November 2020 00:00
Orbit: 554 x 2937 km, 32.9° (Epoch: 31 October)

Date Brightness Start Highest point End Pass type
(mag) Time Alt. Az. Time Alt. Az. Time Alt. Az.
31 Oct 10.1 18:53:02 10° SW 19:04:17 54° SSE 19:11:34 35° ESE visible
31 Oct 10.2 21:01:35 10° W 21:12:57 59° SW 21:12:57 59° SW visible
31 Oct 11.5 23:12:00 10° W 23:14:19 17° W 23:14:19 17° W visible
01 Nov 10.3 17:04:07 10° SSW 17:12:29 33° SE 17:24:46 10° E visible
01 Nov 10.0 19:10:36 10° WSW 19:22:03 59° SSE 19:28:05 41° ESE visible
01 Nov 10.4 21:19:27 10° W 21:29:27 51° SW 21:29:27 51° SW visible
01 Nov 11.7 23:30:08 10° W 23:30:50 12° W 23:30:50 12° W visible
02 Nov 10.1 17:21:09 10° SW 17:29:52 40° SSE 17:43:09 10° E visible
02 Nov 10.0 19:28:15 10° WSW 19:39:53 62° S 19:44:35 48° ESE visible
02 Nov 10.6 21:37:21 10° W 21:45:58 44° WSW 21:45:58 44° WSW visible
03 Nov 10.0 17:38:25 10° SW 17:47:24 47° SSE 17:59:43 14° E visible
03 Nov 10.0 19:45:59 10° WSW 19:57:46 63° S 20:01:06 54° SE visible
03 Nov 10.8 21:55:19 10° W 22:02:28 36° WSW 22:02:28 36° WSW visible
04 Nov 9.9 17:55:52 10° SW 18:05:03 52° SSE 18:16:14 18° E visible
04 Nov 10.0 20:03:46 10° W 20:15:41 62° S 20:17:37 59° SSE visible
04 Nov 11.0 22:13:20 10° W 22:18:59 29° WSW 22:18:59 29° WSW visible
05 Nov 9.8 18:13:25 10° WSW 18:22:47 57° SSE 18:32:46 23° ESE visible
05 Nov 10.0 20:21:37 10° W 20:33:36 59° S 20:34:09 59° S visible
05 Nov 11.2 22:31:29 10° W 22:35:32 22° WSW 22:35:32 22° WSW visible
06 Nov 9.8 18:31:05 10° WSW 18:40:36 59° S 18:49:20 27° ESE visible
06 Nov 10.1 20:39:29 10° W 20:50:43 54° SSW 20:50:43 54° SSW visible
06 Nov 11.5 22:49:49 10° W 22:52:07 16° W 22:52:07 16° W visible
07 Nov 9.8 18:48:48 10° WSW 18:58:27 59° S 19:05:57 32° ESE visible
07 Nov 10.3 20:57:26 10° W 21:07:20 47° SW 21:07:20 47° SW visible
07 Nov 11.7 23:08:27 10° W 23:08:44 11° W 23:08:44 11° W visible
08 Nov 9.6 16:59:09 10° SW 17:06:31 49° SSE 17:18:36 10° E visible
08 Nov 9.8 19:06:35 10° W 19:16:20 57° S 19:22:36 36° SE visible
08 Nov 10.6 21:15:28 10° W 21:24:00 39° SW 21:24:00 39° SW visible
09 Nov 9.6 17:16:43 10° WSW 17:24:14 53° S 17:36:42 10° E visible
09 Nov 9.9 19:24:24 10° W 19:34:13 54° S 19:39:20 39° SE visible
09 Nov 10.8 21:33:39 10° W 21:40:44 31° SW 21:40:44 31° SW visible
